Location: Praha
(50.0830°N, 14.4670°E)
Time: 04:43:45
(UTC+02:00)

ISS - Pass Details

Date: 11 July 2024
Orbit: 409 x 423 km, 51.6° (Epoch: 24 July)

Event Time Altitude Azimuth Distance (km) Brightness Sun altitude
Rises 00:37:14 0° 271° (W) 2,337 0.1 -17.5°
Reaches altitude 10° 00:39:20 10° 274° (W) 1,477 -0.9 -17.6°
Maximum altitude 00:42:38 64° 358° (N) 459 -3.4 -17.6°
Drops below altitude 10° 00:45:56 10° 80° (E) 1,484 -0.9 -17.7°
Sets 00:48:03 0° 84° (E) 2,349 0.1 -17.7°
